Location: Unspecified
(0.0000°N, 0.0000°E)
Time: 23:08:15
(UTC+00:00)

Kosmos-2004 - Pass Details

Date: 23 May 2026
Orbit: 969 x 1012 km, 83.0° (Epoch: 6 June)

Event Time Altitude Azimuth Distance (km) Brightness Sun altitude
Exits shadow 05:02:16 17° 244° (WSW) 2,266 7.3 -12.7°
Maximum altitude 05:04:38 20° 273° (W) 2,058 7.2 -12.2°
Drops below altitude 10° 05:09:04 10° 319° (NW) 2,720 8.1 -11.2°
Sets 05:12:17 0° 335° (NNW) 3,671 9.0 -10.4°
